Notices

What's New in latest Release from April 7th, 2021:

- Updated Glossary, including Speed of Maximum Gust, and Total Hourly Precipitation

- Updated national and regional climate services offices contacts and prices information

- Addition of station inventory lists for 1981-2010, 1971-2000, and 1961-1990 Normals.

If you haven't already, please take our survey and provide feedback about our website: https://eccc.sondage-survey.ca/f/LanguageSelection.aspx?s=442ca660-fcf1-47c0-95a9-59707d6fd709

Hourly Data Report for April 23, 2017

KUGAARUK CLIMATE
NUNAVUT

68°32'15.060" N
89°47'47.020" W
15.80 m
2303094
71407
NBB

Download Data

Hourly Data (April 2017)
Hourly Data Report for April 23, 2017
TIME
LST
Temp Definition
°C
Dew Point Definition
°C
Rel Hum Definition
%
Precip. Amount Definition
mm

Wind Dir Definition
10's deg

Wind Spd Definition
km/h
Visibility Definition
km
Stn Press Definition
kPa
Hmdx Definition


Wind Chill Definition


Weather Definition


00:00 -22.0 -24.9 78 0.0 24 18   102.46   -32 LegendNANA
01:00 -21.9 -24.6 78 0.0 25 18   102.45   -32 LegendNANA
02:00 -21.2 -24.0 78 0.0 25 20   102.41   -32 LegendNANA
03:00 -21.2 -24.0 78 0.0 25 18   102.38   -31 LegendNANA
04:00 -20.2 -23.0 78 0.0 26 19   102.36   -30 LegendNANA
05:00 -20.7 -23.7 76 0.0 27 18   102.34   -31 LegendNANA
06:00 -20.2 -24.1 71 0.0 27 15   102.33   -29 LegendNANA
07:00 -19.5 -23.6 70 0.0 27 10   102.32   -27 LegendNANA
08:00 -18.8 -24.5 61 0.0 26 6   102.32   -24 LegendNANA
09:00 -18.0 -24.8 55 0.0 26 3   102.34   -20 LegendNANA
10:00 -16.0 -25.3 44 0.0 0 1   102.32   -17 LegendNANA
11:00 -18.1 -23.9 61 0.0 24 8   102.32   -24 LegendNANA
12:00 -17.1 -21.9 67 0.0 24 14   102.32   -25 LegendNANA
13:00 -15.4 -21.5 59 0.0 26 8   102.32   -21 LegendNANA
14:00 -14.4 -21.6 54 0.0 32 4   102.32   -17 LegendNANA
15:00 -14.3 -21.8 53 0.0 34 3   102.31   -16 LegendNANA
16:00 -15.2 -18.8 74 0.0 23 10   102.31   -21 LegendNANA
17:00 -15.0 -17.8 79 0.0 22 11   102.32   -22 LegendNANA
18:00 -14.9 -17.3 82 0.0 24 13   102.33   -22 LegendNANA
19:00 -14.9 -17.1 83 0.0 23 10   102.32   -21 LegendNANA
20:00 -15.1 -17.0 85 0.0 24 9   102.30   -21 LegendNANA
21:00 -15.3 -17.4 84 0.0 21 7   102.30   -20 LegendNANA
22:00 -16.6 -19.0 82 0.0 22 16   102.30   -25 LegendNANA
23:00 -16.6 -18.7 84 0.0 22 9   102.31   -23 LegendNANA

Notes on Data Quality.

Legend

  • E = Estimated
  • M = Missing
  • NA = Not Available*
  • [empty] = Indicates an unobserved value
Date modified: